Meteopurmerend
purmerend
Purmerend - Baaienwijk



My webcam  My webcam


waarschuwing voor Onweer Meer informatie blitzortung!


Regen radar Meer informatie rain snow radar


Bezoek onze andere website:

CandyAppleRed WebdesignWebdesign Purmerend Candy Apple Red

MeteopurmerendBlog

Template documentation
and downloads



Onweer van: 26-07-2021 13:00 tot: 21:00 waarschuwing voor: Onweer niveau: Geel info button
Enkele onweersbuien, lokaal met hagel en veel neerslag in korte tijd.Kans op blikseminslag, hagel en veel neerslag in korte tijd.Verkeer en buitenactiviteiten kunnen hinder ondervinden.Mijd open water en open gebied, schuil niet onder bomen.Volg weerberichten en waarschuwingen.

15 daagse weersverwachting Helmond (NL)

  • Overzicht
  • Per uur
  • 15 dagen
  • Extra
  • Vergelijk
  • Kaarten
  • Dagkaart
  • Meer »
  • Info
  • Statistieken
  • Directe link
    Temp 6h Neerslag Wind  
 05:55     21:34    Daglengte: 15:39 Vandaag
20:00
19°
1.2 mm
4
 05:56     21:32    Daglengte: 15:36 Morgen
02:00
16°
 
3
08:00
17°
 
3
14:00
22°
 
4
20:00
19°
3.5 mm
3
 05:58     21:31    Daglengte: 15:33 Woensdag 28 Jul
02:00
16°
 
4
08:00
16°
 
5
14:00
20°
6.1 mm
6
20:00
18°
10.7 mm
5
 05:59     21:29    Daglengte: 15:30 Donderdag 29 Jul
02:00
15°
10.5 mm
5
08:00
15°
3.6 mm
6
Locatie info
Region: Noord-Brabant
Latitude: 51.4822°N
Longitude: 5.6583°E
19 masl
Postcode: 5701 ST
Temp/Neerslag /Baro Onweer/Dauwpunt
    Temp Baro 1h Neerslag Dauwpunt Wind UV Bewolking  
 05:55     21:34    Daglengte: 15:39 Vandaag
15:00
21°
1009.8 hPa
49%
14.4°
5
Windvlaag: 7 m/s
23%
16:00
22°
1009.8 hPa
82%
14.2°
4
Windvlaag: 6.2 m/s
35%
17:00
21°
1009.8 hPa 0.5 mm
82%
13.7°
4
Windvlaag: 5.6 m/s
73%
18:00
20°
1009.8 hPa 0.4 mm
82%
13.6°
4
Windvlaag: 5.5 m/s
58%
19:00
20°
1009.6 hPa 0.3 mm
81%
14.2°
4
Windvlaag: 4.6 m/s
50%
20:00
19°
1009.8 hPa
79%
16.0°
4
Windvlaag: 4.8 m/s
68%
21:00
18°
1010.2 hPa
66%
15.8°
3
Windvlaag: 4.7 m/s
63%
22:00
18°
1010.9 hPa
32%
15.9°
2
Windvlaag: 4.6 m/s
55%
23:00
17°
1011.1 hPa
17%
16.5°
3
Windvlaag: 3.9 m/s
65%
 05:56     21:32    Daglengte: 15:36 Morgen
00:00
17°
1011.2 hPa
15%
16.5°
3
Windvlaag: 4 m/s
51%
01:00
17°
1011.2 hPa
15%
16.3°
3
Windvlaag: 4.7 m/s
18%
02:00
16°
1011.3 hPa
14%
15.9°
3
Windvlaag: 4.8 m/s
49%
03:00
16°
1011.3 hPa
14%
15.5°
2
Windvlaag: 4.7 m/s
66%
04:00
16°
1011.3 hPa
14%
15.7°
3
Windvlaag: 5.5 m/s
60%
05:00
16°
1011.2 hPa
14%
15.8°
3
Windvlaag: 5.3 m/s
55%
06:00
16°
1011.0 hPa
14%
15.6°
3
Windvlaag: 5.6 m/s
54%
07:00
16°
1011.2 hPa
14%
15.5°
3
Windvlaag: 4.7 m/s
80%
08:00
17°
1011.4 hPa
14%
15.5°
3
Windvlaag: 5.5 m/s
84%
09:00
17°
1011.3 hPa
14%
15.8°
4
Windvlaag: 6.9 m/s
58%
10:00
19°
1011.5 hPa
15%
15.9°
4
Windvlaag: 7.6 m/s
73%
11:00
20°
1011.3 hPa
14%
15.7°
4
Windvlaag: 7.1 m/s
74%
12:00
20°
1011.1 hPa
14%
17.6°
4
Windvlaag: 7.4 m/s
53%
13:00
21°
1010.7 hPa
21%
18.3°
4
Windvlaag: 6.6 m/s
59%
14:00
22°
1010.4 hPa
44%
18.6°
4
Windvlaag: 5.8 m/s
34%
15:00
21°
1010.1 hPa 1.6 mm
82%
15.3°
4
Windvlaag: 6.1 m/s
59% warningclass
16:00
20°
1010.4 hPa 1.9 mm
82%
16.4°
4
Windvlaag: 6.8 m/s
72% warningclass
17:00
20°
1010.2 hPa
82%
17.1°
4
Windvlaag: 5.8 m/s
51%
18:00
20°
1010.0 hPa
82%
17.4°
3
Windvlaag: 5 m/s
73%
19:00
19°
1009.8 hPa
82%
17.2°
3
Windvlaag: 5.3 m/s
57%
20:00
19°
1009.8 hPa
82%
15.9°
3
Windvlaag: 6.3 m/s
67%
21:00
18°
1009.8 hPa
82%
15.8°
3
Windvlaag: 5.2 m/s
60%
22:00
18°
1010.0 hPa
77%
15.6°
3
Windvlaag: 4.7 m/s
60%
23:00
17°
1010.2 hPa
19%
15.8°
3
Windvlaag: 4.8 m/s
66%
 05:58     21:31    Daglengte: 15:33 Woensdag 28 Jul
00:00
17°
1010.1 hPa
14%
15.9°
3
Windvlaag: 6.7 m/s
58%
01:00
16°
1009.9 hPa
52%
15.8°
3
Windvlaag: 7.4 m/s
70%
02:00
16°
1009.7 hPa
27%
15.2°
4
Windvlaag: 7.2 m/s
62%
03:00
16°
1009.3 hPa
22%
14.6°
3
Windvlaag: 7.4 m/s
67%
04:00
16°
1009.1 hPa
23%
14.7°
3
Windvlaag: 8 m/s
44%
05:00
16°
1009.0 hPa
17%
14.7°
3
Windvlaag: 7.8 m/s
48%
06:00
15°
1009.1 hPa
82%
14.8°
3
Windvlaag: 8.1 m/s
56%
07:00
16°
1009.2 hPa
39%
14.9°
4
Windvlaag: 7.8 m/s
60%
08:00
16°
1009.2 hPa
15%
14.7°
5
Windvlaag: 8.8 m/s
31%
09:00
17°
1009.3 hPa
23%
13.9°
5
Windvlaag: 8.8 m/s
80%
10:00
17°
1009.3 hPa
79%
14.2°
5
Windvlaag: 9.3 m/s
60%
11:00
18°
1008.9 hPa 2.4 mm
97%
11.6°
6
Windvlaag: 9.7 m/s
59%
12:00
19°
1008.9 hPa
90%
12.1°
6
Windvlaag: 10.1 m/s
41%
13:00
19°
1008.8 hPa 1.9 mm
94%
12.1°
6
Windvlaag: 10.2 m/s
57%
14:00
20°
1008.9 hPa 1.7 mm
94%
13.1°
6
Windvlaag: 9.3 m/s
55%
15:00
20°
1009.0 hPa 3.0 mm
100%
13.6°
6
Windvlaag: 9.1 m/s
53%
16:00
20°
1009.2 hPa 1.8 mm
100%
11.9°
6
Windvlaag: 8.7 m/s
62%
17:00
20°
1009.4 hPa 2.0 mm
100%
12.9°
6
Windvlaag: 8.3 m/s
35% warningclass
18:00
19°
1009.2 hPa 1.8 mm
100%
14.9°
6
Windvlaag: 8.4 m/s
35%
19:00
19°
1009.0 hPa 2.1 mm
99%
12.0°
5
Windvlaag: 8.6 m/s
52%
20:00
18°
1009.1 hPa
100%
15.1°
5
Windvlaag: 7.3 m/s
16%
21:00
17°
1009.1 hPa
28%
13.8°
3
Windvlaag: 7.3 m/s
36%
22:00
17°
1009.1 hPa
21%
13.7°
4
Windvlaag: 7.2 m/s
31%
23:00
16°
1008.9 hPa 3.1 mm
21%
13.0°
4
Windvlaag: 8.1 m/s
32%
 05:59     21:29    Daglengte: 15:30 Donderdag 29 Jul
00:00
16°
1008.9 hPa 3.6 mm
21%
14.0°
5
Windvlaag: 8 m/s
79%
01:00
16°
1008.8 hPa 3.8 mm
21%
13.3°
5
Windvlaag: 8.8 m/s
77%
02:00
15°
1008.4 hPa
21%
12.6°
5
Windvlaag: 8.6 m/s
13%
03:00
15°
1008.1 hPa
21%
11.9°
5
Windvlaag: 9.5 m/s
85%
04:00
15°
1008.0 hPa
21%
11.6°
5
Windvlaag: 10.4 m/s
85%
05:00
15°
1007.9 hPa
21%
11.7°
5
Windvlaag: 10.7 m/s
81%
06:00
14°
1008.0 hPa
21%
11.8°
5
Windvlaag: 10.3 m/s
65%
07:00
14°
1008.2 hPa
21%
11.5°
6
Windvlaag: 9.8 m/s
50%
08:00
15°
1008.4 hPa 3.6 mm
22%
11.4°
6
Windvlaag: 10 m/s
55%
09:00
16°
1010.0 hPa
21%
11.7°
6
Windvlaag: 13.3 m/s
15%
10:00
17°
1010.1 hPa
21%
11.3°
6
Windvlaag: 13 m/s
14%
11:00
18°
1010.4 hPa
21%
10.7°
6
Windvlaag: 13 m/s
14%
12:00
19°
1010.3 hPa
21%
9.7°
7
Windvlaag: 12.8 m/s
25%
13:00
20°
1010.4 hPa
21%
9.4°
7
Windvlaag: 13.5 m/s
19%
14:00
20°
1010.2 hPa
21%
10.0°
7
Windvlaag: 14.1 m/s
75%
Temp/Neerslag /Baro Onweer/Dauwpunt
    Temp Baro Neerslag Dauwpunt Wind Bewolking  
 05:55     21:34    Daglengte: 15:39 Vandaag
17:00
21°
1009.8 hPa 0.5 mm 13.7°
4
73%
20:00
19°
1009.8 hPa 0.7 mm 16.0°
4
68%
23:00
17°
1011.1 hPa   16.5°
3
65%
 05:56     21:32    Daglengte: 15:36 Morgen
02:00
16°
1011.3 hPa   15.9°
3
49%
05:00
16°
1011.2 hPa   15.8°
3
55%
08:00
17°
1011.4 hPa   15.5°
3
84%
11:00
20°
1011.3 hPa   15.7°
4
74%
14:00
22°
1010.4 hPa   18.6°
4
34%
17:00
20°
1010.2 hPa 3.5 mm 17.1°
4
51%
20:00
19°
1009.8 hPa   15.9°
3
67%
23:00
17°
1010.2 hPa   15.8°
3
66%
 05:58     21:31    Daglengte: 15:33 Woensdag 28 Jul
02:00
16°
1009.7 hPa   15.2°
4
62%
05:00
16°
1009.0 hPa   14.7°
3
48%
08:00
16°
1009.2 hPa   14.7°
5
31%
11:00
18°
1008.9 hPa 2.4 mm 11.6°
6
59%
14:00
20°
1008.9 hPa 3.6 mm 13.1°
6
55%
17:00
20°
1009.4 hPa 6.8 mm 12.9°
6
35% warningclass
20:00
18°
1009.1 hPa 3.9 mm 15.1°
5
16%
23:00
16°
1008.9 hPa 3.1 mm 13.0°
4
32%
 05:59     21:29    Daglengte: 15:30 Donderdag 29 Jul
02:00
15°
1008.4 hPa 7.4 mm 12.6°
5
13%
05:00
15°
1007.9 hPa   11.7°
5
81%
08:00
15°
1008.4 hPa 3.6 mm 11.4°
6
55%
11:00
18°
1010.4 hPa   10.7°
6
14%
14:00
20°
1010.2 hPa   10.0°
7
75%
17:00
20°
1011.0 hPa 9.5 mm 11.6°
8
1%
20:00
19°
1011.1 hPa 9.6 mm 11.5°
7
0%
23:00
16°
1011.6 hPa 9.6 mm 9.7°
5
0%
 06:01     21:28    Daglengte: 15:27 Vrijdag 30 Jul
02:00
14°
1011.6 hPa 9.6 mm 9.5°
4
0%
05:00
12°
1011.4 hPa 9.6 mm 9.7°
4
0%
08:00
14°
1011.9 hPa 9.6 mm 10.6°
5
0%
11:00
19°
1011.4 hPa 9.6 mm 11.5°
5
1%
14:00
22°
1010.3 hPa 9.6 mm 11.6°
4
1%
17:00
23°
1009.2 hPa 9.6 mm 12.8°
4
1%
20:00
21°
1007.8 hPa 9.6 mm 15.3°
0
1%
23:00
17°
1007.5 hPa 10.9 mm 15.1°
2
1%
 06:02     21:26    Daglengte: 15:24 Zaterdag 31 Jul
02:00
15°
1007.7 hPa 11.5 mm 14.3°
3
1%
05:00
14°
1006.8 hPa 11.8 mm 13.6°
3
0%
08:00
15°
1006.5 hPa 11.8 mm 13.1°
3
0%
11:00
19°
1005.3 hPa 12.0 mm 12.6°
8
0%
14:00
18°
1004.5 hPa 14.1 mm 13.3°
10
0%
17:00
19°
1004.1 hPa 15.5 mm 13.9°
9
1%
20:00
18°
1006.2 hPa 15.8 mm 13.0°
6
0%
23:00
14°
1008.0 hPa 15.8 mm 11.8°
3
0%
 06:04     21:24    Daglengte: 15:20 Zondag 01 Aug
02:00
13°
1007.7 hPa 15.8 mm 11.3°
3
0%
05:00
14°
1007.2 hPa 16.0 mm 13.0°
3
1%
08:00
14°
1007.2 hPa 16.5 mm 12.5°
4
1%
11:00
16°
1006.9 hPa 16.8 mm 13.6°
4
1%
14:00
18°
1007.6 hPa 18.8 mm 14.1°
6
1%
17:00
19°
1008.4 hPa 20.6 mm 11.8°
6
1%
20:00
15°
1009.7 hPa 21.6 mm 12.4°
5
1%
23:00
12°
1012.1 hPa 21.6 mm 11.2°
3
1%
 06:05     21:23    Daglengte: 15:18 Maandag 02 Aug
02:00
11°
1013.4 hPa 21.6 mm 9.9°
3
0%
05:00
10°
1013.9 hPa 21.6 mm 9.1°
3
0%
08:00
12°
1015.0 hPa 21.6 mm 10.7°
3
0%
11:00
17°
1015.8 hPa 21.7 mm 10.2°
5
0%
14:00
18°
1016.1 hPa 43.9 mm 10.2°
4
1%
20:00
18°
1015.4 hPa 44.5 mm 11.7°
1
1%
 06:07     21:21    Daglengte: 15:14 Dinsdag 03 Aug
02:00
14°
1015.8 hPa 44.5 mm 9.6°
2
1%
08:00
14°
1016.0 hPa 44.5 mm 11.0°
4
1%
14:00
22°
1015.4 hPa 44.5 mm 10.1°
5
1%
20:00
19°
1014.5 hPa 44.5 mm 12.5°
4
1%
 06:08     21:19    Daglengte: 15:11 Woensdag 04 Aug
02:00
15°
1013.8 hPa 44.5 mm 10.8°
5
1%
08:00
17°
1012.0 hPa 44.5 mm 9.5°
5
1%
14:00
22°
1010.2 hPa 44.6 mm 13.0°
8
1%
20:00
19°
1009.4 hPa 45.8 mm 14.8°
6
1%
 06:10     21:18    Daglengte: 15:08 Donderdag 05 Aug
02:00
15°
1009.9 hPa 46.5 mm 11.5°
5
0%
08:00
15°
1008.9 hPa 46.5 mm 12.6°
5
1%
14:00
20°
1013.0 hPa 1.6 mm 13.4°
3
64%
20:00
18°
1012.5 hPa 2.0 mm 13.9°
2
62%
 06:11     21:16    Daglengte: 15:05 Vrijdag 06 Aug
02:00
14°
1012.8 hPa 0.8 mm 11.9°
2
63%
08:00
15°
1012.2 hPa 0.8 mm 12.5°
4
63%
14:00
20°
1012.4 hPa 0.7 mm 13.4°
4
60%
20:00
18°
1012.5 hPa 1.7 mm 13.7°
3
59%
 06:13     21:14    Daglengte: 15:01 Zaterdag 07 Aug
02:00
14°
1013.4 hPa 0.2 mm 11.5°
3
45%
08:00
14°
1013.1 hPa 0.7 mm 12.5°
3
55%
14:00
20°
1012.8 hPa 1.4 mm 13.6°
4
67%
20:00
18°
1012.6 hPa 1.6 mm 13.9°
2
62%
 06:14     21:12    Daglengte: 14:58 Zondag 08 Aug
02:00
14°
1013.3 hPa 0.8 mm 12.2°
2
58%
08:00
15°
1013.0 hPa 0.6 mm 12.8°
3
60%
14:00
20°
1013.3 hPa 1.1 mm 14.0°
4
63%
20:00
18°
1013.6 hPa 1.6 mm 14.0°
2
72%
 06:16     21:10    Daglengte: 14:54 Maandag 09 Aug
02:00
14°
1015.1 hPa 0.2 mm 11.8°
2
50%
08:00
14°
1015.7 hPa 0.3 mm 12.0°
3
44%
14:00
20°
1016.3 hPa   13.1°
4
48%
20:00
19°
1016.2 hPa   14.1°
2
51%
 06:18     21:09    Daglengte: 14:51 Dinsdag 10 Aug
02:00
14°
1017.3 hPa 0.2 mm 11.6°
2
52%
08:00
15°
1017.3 hPa 0.1 mm 12.4°
2
56%
14:00
21°
1017.4 hPa 0.7 mm 14.0°
3
61%
  CAPE Lifted Index Hail Supercell Tornado SRH 3km CL BTM PRES CL TOP PRES Swiss DWD icon SMHI TS
 05:55     21:34    Daglengte: 15:39 Vandaag
15:00 578 J/kg -2.0 K 0 % 0 % 0 % 0 m²/s² 0 0 -0.8 2
16:00 639 J/kg -2.2 K 0 % 0 % 0 % 0 m²/s² 0 0 -0.67 3
17:00 598 J/kg -2.1 K 0 % 0 % 0 % 0 m²/s² 0 0 -0.81 80
18:00 719 J/kg -2.5 K 0 % 0 % 0 % 0 m²/s² 0 0 -1.72 80
19:00 713 J/kg -2.6 K 0 % 0 % 0 % 0 m²/s² 0 0 -1.82 3
20:00 635 J/kg -2.2 K 0 % 0 % 0 % 0 m²/s² 0 0 -1.87 3
21:00 92 J/kg -0.6 K 0 % 0 % 0 % 0 m²/s² 0 0 -0.12 3
22:00 27 J/kg -0.2 K 0 % 0 % 0 % 0 m²/s² 0 0 0.7 3
23:00 327 J/kg -2.2 K 0 % 0 % 0 % 0 m²/s² 0 0 -1.36 3
 05:56     21:32    Daglengte: 15:36 Morgen
00:00 280 J/kg -1.2 K 0 % 0 % 0 % 0 m²/s² 0 0 -0.21 3
01:00 72 J/kg 0.2 K 0 % 0 % 0 % 0 m²/s² 0 0 0.86 3
02:00 0 J/kg 0.7 K 0 % 0 % 0 % 0 m²/s² 0 0 2.11 3
03:00 0 J/kg 0.4 K 0 % 0 % 0 % 0 m²/s² 0 0 2.59 3
04:00 5 J/kg -0.7 K 0 % 0 % 0 % 0 m²/s² 0 0 1.55 3
05:00 90 J/kg -1.5 K 0 % 0 % 0 % 0 m²/s² 0 0 1.05 3
06:00 64 J/kg -1.7 K 0 % 0 % 0 % 0 m²/s² 0 0 1.09 2
07:00 0 J/kg -0.5 K 0 % 0 % 0 % 0 m²/s² 0 0 2.53 3
08:00 27 J/kg -1.7 K 0 % 0 % 0 % 0 m²/s² 0 0 1.75 3
09:00 107 J/kg -1.0 K 0 % 0 % 0 % 0 m²/s² 0 0 2.54 3
10:00 237 J/kg -1.7 K 0 % 0 % 0 % 0 m²/s² 0 0 1.66 3
11:00 451 J/kg -2.1 K 0 % 0 % 0 % 0 m²/s² 0 0 0.09 3
12:00 663 J/kg -2.7 K 0 % 0 % 0 % 0 m²/s² 0 0 -0.96 3
13:00 815 J/kg -3.4 K 0 % 0 % 0 % 0 m²/s² 0 0 -2.08 3
14:00 919 J/kg -3.5 K 0 % 0 % 0 % 0 m²/s² 0 0 -2.63 3
15:00 985 J/kg -3.4 K 0 % 0 % 0 % 0 m²/s² 0 0 -2.98 80
16:00 878 J/kg -3.0 K 0 % 0 % 0 % 0 m²/s² 0 0 -2.49 80
17:00 128 J/kg -0.2 K 0 % 0 % 0 % 0 m²/s² 0 0 0.22 80
18:00 112 J/kg 0.0 K 0 % 0 % 0 % 0 m²/s² 0 0 0.57 80
19:00 80 J/kg 0.2 K 0 % 0 % 0 % 0 m²/s² 0 0 0.41 80
20:00 2 J/kg -0.1 K 0 % 0 % 0 % 0 m²/s² 0 0 0.17 3
21:00 107 J/kg -0.3 K 0 % 0 % 0 % 0 m²/s² 0 0 0 3
22:00 150 J/kg -0.9 K 0 % 0 % 0 % 0 m²/s² 0 0 -0.63 3
23:00 183 J/kg -0.9 K 0 % 0 % 0 % 0 m²/s² 0 0 -0.72 3
 05:58     21:31    Daglengte: 15:33 Woensdag 28 Jul
00:00 125 J/kg -0.4 K 0 % 0 % 0 % 0 m²/s² 0 0 0.26 3
01:00 152 J/kg -0.9 K 0 % 0 % 0 % 0 m²/s² 0 0 -0.15 3
02:00 104 J/kg -0.8 K 0 % 0 % 0 % 0 m²/s² 0 0 0.43 3
03:00 37 J/kg -0.4 K 0 % 0 % 0 % 0 m²/s² 0 0 1.34 3
04:00 0 J/kg 0.6 K 0 % 0 % 0 % 0 m²/s² 0 0 2.4 3
05:00 0 J/kg 0.7 K 0 % 0 % 0 % 0 m²/s² 0 0 2.89 3
06:00 0 J/kg 1.0 K 0 % 0 % 0 % 0 m²/s² 0 0 2.92 3
07:00 0 J/kg 0.8 K 0 % 0 % 0 % 0 m²/s² 0 0 2.87 3
08:00 1 J/kg 2.3 K 0 % 0 % 0 % 0 m²/s² 0 0 4.49 2
09:00 0 J/kg 2.8 K 0 % 0 % 0 % 0 m²/s² 0 0 5.2 3
10:00 0 J/kg 3.5 K 0 % 0 % 0 % 0 m²/s² 0 0 6.44 80
11:00 8 J/kg 2.6 K 0 % 0 % 0 % 0 m²/s² 0 0 5.96 80
12:00 50 J/kg 1.6 K 0 % 0 % 0 % 0 m²/s² 0 0 5.26 3
13:00 81 J/kg 1.2 K 0 % 0 % 0 % 0 m²/s² 0 0 4.32 80
14:00 104 J/kg 0.6 K 0 % 0 % 0 % 0 m²/s² 0 0 2.94 2
15:00 190 J/kg 0.0 K 0 % 0 % 0 % 0 m²/s² 0 0 2.46 2
16:00 259 J/kg -0.3 K 0 % 0 % 0 % 0 m²/s² 0 0 2.4 80
17:00 338 J/kg -0.7 K 0 % 0 % 0 % 0 m²/s² 0 0 1.76 95
18:00 238 J/kg -0.5 K 0 % 0 % 0 % 0 m²/s² 0 0 1.6 80
19:00 278 J/kg -0.4 K 0 % 0 % 0 % 0 m²/s² 0 0 2.6 80
20:00 223 J/kg 0.6 K 0 % 0 % 0 % 0 m²/s² 0 0 0.81 1
21:00 176 J/kg 1.6 K 0 % 0 % 0 % 0 m²/s² 0 0 3.46 0
22:00 242 J/kg 1.7 K 0 % 0 % 0 % 0 m²/s² 0 0 3.29 1
23:00 141 J/kg 2.9 K 0 % 0 % 0 % 0 m²/s² 0 0 3.08 1
 05:59     21:29    Daglengte: 15:30 Donderdag 29 Jul
00:00 139 J/kg 3.4 K 0 % 0 % 0 % 0 m²/s² 0 0 4.03 1
01:00 62 J/kg 5.1 K 0 % 0 % 0 % 0 m²/s² 0 0 6.48 2
02:00 2 J/kg 7.0 K 0 % 0 % 0 % 0 m²/s² 0 0 8.17 2
03:00 0 J/kg 8.0 K 0 % 0 % 0 % 0 m²/s² 0 0 10.67 2
04:00 20 J/kg 7.1 K 0 % 0 % 0 % 0 m²/s² 0 0 11.99 2
05:00 81 J/kg 6.8 K 0 % 0 % 0 % 0 m²/s² 0 0 11.42 2
06:00 77 J/kg 7.4 K 0 % 0 % 0 % 0 m²/s² 0 0 12.8 2
07:00 65 J/kg 8.5 K 0 % 0 % 0 % 0 m²/s² 0 0 13.6 2
08:00 86 J/kg 8.7 K 0 % 0 % 0 % 0 m²/s² 0 0 12.96 2
09:00 121 J/kg 8.4 K 0 % 0 % 0 % 0 m²/s² 0 0 13.35 2
10:00 158 J/kg 7.9 K 0 % 0 % 0 % 0 m²/s² 0 0 13.21 2
11:00 155 J/kg 7.4 K 0 % 0 % 0 % 0 m²/s² 0 0 12.59 2
12:00 95 J/kg 6.9 K 0 % 0 % 0 % 0 m²/s² 0 0 10.92 2
13:00 101 J/kg 5.7 K 0 % 0 % 0 % 0 m²/s² 0 0 8.4 2
14:00 96 J/kg 4.4 K 0 % 0 % 0 % 0 m²/s² 0 0 9.32 3
Temp Baro Wind Neerslag
  EWN Forecast EWN WRFDA DWD ICON FMI HIRLAM MET Norway GFSWXSIM
 05:55     21:34    Daglengte: 15:39 Vandaag
17:00 21.3° 1009.8 hPa 4.2 m/s 0.5 mm 22.6° 1009.0 hPa 4.2 m/s 1.3 mm 21.0° 1010.0 hPa 4.2 m/s -1.2 mm 22.7° 1009.1 hPa 4.4 m/s 0.0 mm 21.7° 1009.8 hPa 6.0 m/s
20:00 19.1° 1009.8 hPa 3.8 m/s 0.7 mm 19.8° 1008.9 hPa 4.8 m/s 2.2 mm 18.9° 1009.8 hPa 3.7 m/s 0.5 mm 20.7° 1009.2 hPa 3.1 m/s 0.0 mm 20.1° 1009.6 hPa 5.2 m/s
23:00 17.3° 1011.1 hPa 2.5 m/s 0.0 mm 17.2° 1010.3 hPa 2.6 m/s 5.6 mm 17.3° 1011.4 hPa 2.9 m/s 0.0 mm 18.1° 1010.0 hPa 1.8 m/s 0.0 mm 16.6° 1010.6 hPa 3.5 m/s
 05:56     21:32    Daglengte: 15:36 Morgen
02:00 16.3° 1011.3 hPa 2.5 m/s 0.0 mm 14.9° 1010.1 hPa 2.4 m/s 5.8 mm 16.6° 1011.6 hPa 2.4 m/s 0.0 mm 16.4° 1010.3 hPa 2.9 m/s 0.0 mm 15.1° 1011.5 hPa 2.6 m/s
05:00 16.1° 1011.2 hPa 2.7 m/s 0.0 mm 14.1° 1009.8 hPa 2.6 m/s 5.8 mm 16.4° 1011.6 hPa 2.6 m/s 0.0 mm 15.5° 1010.1 hPa 2.2 m/s 0.0 mm 14.6° 1011.1 hPa 2.9 m/s
08:00 16.6° 1011.4 hPa 3.2 m/s 0.0 mm 17.1° 1010.1 hPa 3.2 m/s 5.8 mm 17.0° 1012.1 hPa 3.7 m/s 0.0 mm 16.4° 1010.2 hPa 3.2 m/s 0.0 mm 16.2° 1011.2 hPa 3.6 m/s
11:00 20.1° 1011.3 hPa 3.7 m/s 0.0 mm 21.2° 1010.0 hPa 3.8 m/s 5.8 mm 20.1° 1011.8 hPa 4.0 m/s 0.0 mm 20.7° 1010.5 hPa 3.7 m/s 0.0 mm 19.9° 1011.0 hPa 4.8 m/s
14:00 21.8° 1010.4 hPa 3.7 m/s 0.0 mm 22.1° 1010.0 hPa 2.4 m/s 7.8 mm 23.0° 1010.9 hPa 4.5 m/s 0.0 mm 21.9° 1009.7 hPa 3.4 m/s 0.0 mm 21.5° 1010.7 hPa 4.2 m/s
17:00 20.3° 1010.2 hPa 4.0 m/s 3.5 mm 19.1° 1010.0 hPa 5.6 m/s 14.7 mm 20.4° 1010.8 hPa 3.2 m/s 1.9 mm 21.1° 1008.4 hPa 4.5 m/s 0.0 mm 19.1° 1010.3 hPa 2.7 m/s
20:00 18.8° 1009.8 hPa 3.2 m/s 0.0 mm 18.6° 1009.2 hPa 2.8 m/s 17.1 mm 18.6° 1010.5 hPa 2.7 m/s 1.4 mm 19.9° 1008.2 hPa 3.8 m/s 0.0 mm 19.2° 1009.5 hPa 3.5 m/s
23:00 17.2° 1010.2 hPa 3.2 m/s 0.0 mm 17.0° 1009.6 hPa 2.2 m/s 17.9 mm 17.2° 1010.5 hPa 2.8 m/s 0.1 mm 17.6° 1009.7 hPa 5.1 m/s 0.0 mm 16.5° 1010.4 hPa 4.5 m/s
 05:58     21:31    Daglengte: 15:33 Woensdag 28 Jul
02:00 16.4° 1009.7 hPa 3.6 m/s 0.0 mm 15.8° 1008.5 hPa 3.3 m/s 20.0 mm 16.5° 1009.4 hPa 2.7 m/s 0.0 mm 16.5° 1010.2 hPa 3.7 m/s 0.0 mm 15.5° 1010.2 hPa 4.8 m/s
05:00 15.5° 1009.0 hPa 3.1 m/s 0.0 mm 14.5° 1008.1 hPa 3.2 m/s 20.0 mm 16.1° 1008.7 hPa 2.9 m/s 0.0 mm 14.3° 1010.0 hPa 2.2 m/s 0.0 mm 14.6° 1009.5 hPa 5.0 m/s
08:00 16.4° 1009.2 hPa 4.8 m/s 0.0 mm 16.3° 1008.6 hPa 5.2 m/s 20.0 mm 16.7° 1008.2 hPa 4.7 m/s 0.1 mm 16.4° 1010.0 hPa 4.3 m/s 0.0 mm 16.1° 1010.0 hPa 5.6 m/s
11:00 17.7° 1008.9 hPa 6.1 m/s 2.4 mm 19.1° 1008.4 hPa 6.2 m/s 20.0 mm 17.3° 1008.9 hPa 5.5 m/s 0.6 mm 19.2° 1009.7 hPa 7.3 m/s
14:00 19.5° 1008.9 hPa 6.3 m/s 3.6 mm 20.2° 1008.5 hPa 6.7 m/s 20.1 mm 19.8° 1009.0 hPa 6.0 m/s 0.5 mm 20.3° 1010.0 hPa 8.1 m/s
17:00 19.6° 1009.4 hPa 5.8 m/s 6.8 mm 21.4° 1008.3 hPa 5.7 m/s 20.5 mm 19.6° 1009.5 hPa 5.8 m/s 1.3 mm 20.0° 1010.0 hPa 7.2 m/s
20:00 17.9° 1009.1 hPa 5.1 m/s 3.9 mm 17.9° 1008.6 hPa 7.4 m/s 23.9 mm 18.2° 1009.1 hPa 4.5 m/s 0.6 mm 18.2° 1009.2 hPa 6.1 m/s
23:00 16.4° 1008.9 hPa 3.9 m/s 3.1 mm 17.6° 1008.0 hPa 3.7 m/s 27.5 mm 16.0° 1008.9 hPa 3.3 m/s 0.0 mm 15.3° 1009.1 hPa 4.9 m/s
 05:59     21:29    Daglengte: 15:30 Donderdag 29 Jul
02:00 15.4° 1008.4 hPa 4.6 m/s 7.4 mm 15.5° 1007.8 hPa 4.4 m/s 29.7 mm 15.0° 1009.0 hPa 4.5 m/s 0.0 mm 14.8° 1008.6 hPa 6.5 m/s
05:00 14.8° 1007.9 hPa 5.1 m/s 0.0 mm 15.2° 1007.5 hPa 4.6 m/s 29.8 mm 14.9° 1009.1 hPa 4.7 m/s 0.0 mm 13.1° 1008.9 hPa 6.8 m/s
08:00 14.9° 1008.4 hPa 6.4 m/s 3.6 mm 15.1° 1007.5 hPa 7.1 m/s 29.8 mm 15.3° 1010.1 hPa 4.9 m/s 0.0 mm 13.7° 1009.1 hPa 7.6 m/s
11:00 18.0° 1010.4 hPa 6.2 m/s 0.0 mm 18.0° 1007.6 hPa 8.4 m/s 29.8 mm 18.0° 1011.1 hPa 5.7 m/s 0.0 mm 17.5° 1010.5 hPa 9.2 m/s
14:00 20.1° 1010.2 hPa 7.0 m/s 0.0 mm 19.8° 1007.7 hPa 9.4 m/s 29.8 mm 20.1° 1010.9 hPa 6.4 m/s 0.0 mm 20.9° 1010.8 hPa 8.1 m/s
17:00 20.3° 1011.0 hPa 7.9 m/s 9.5 mm 20.3° 1011.0 hPa 7.9 m/s 9.5 mm
20:00 18.6° 1011.1 hPa 6.6 m/s 9.6 mm 18.6° 1011.1 hPa 6.6 m/s 9.6 mm
23:00 15.7° 1011.6 hPa 5.2 m/s 9.6 mm 15.7° 1011.6 hPa 5.2 m/s 9.6 mm
 06:01     21:28    Daglengte: 15:27 Vrijdag 30 Jul
02:00 13.6° 1011.6 hPa 4.3 m/s 9.6 mm 13.6° 1011.6 hPa 4.3 m/s 9.6 mm
05:00 12.1° 1011.4 hPa 4.1 m/s 9.6 mm 12.1° 1011.4 hPa 4.1 m/s 9.6 mm
08:00 13.8° 1011.9 hPa 4.6 m/s 9.6 mm 13.8° 1011.9 hPa 4.6 m/s 9.6 mm
11:00 18.8° 1011.4 hPa 4.6 m/s 9.6 mm 18.8° 1011.4 hPa 4.6 m/s 9.6 mm
14:00 22.2° 1010.3 hPa 4.3 m/s 9.6 mm 22.2° 1010.3 hPa 4.3 m/s 9.6 mm
17:00 22.9° 1009.2 hPa 3.9 m/s 9.6 mm 22.9° 1009.2 hPa 3.9 m/s 9.6 mm
20:00 21.4° 1007.8 hPa 0.4 m/s 9.6 mm 21.4° 1007.8 hPa 0.4 m/s 9.6 mm
23:00 17.3° 1007.5 hPa 2.5 m/s 10.9 mm 17.3° 1007.5 hPa 2.5 m/s 10.9 mm
 06:02     21:26    Daglengte: 15:24 Zaterdag 31 Jul
02:00 15.0° 1007.7 hPa 2.5 m/s 11.5 mm 15.0° 1007.7 hPa 2.5 m/s 11.5 mm
05:00 13.9° 1006.8 hPa 3.2 m/s 11.8 mm 13.9° 1006.8 hPa 3.2 m/s 11.8 mm
08:00 14.9° 1006.5 hPa 3.4 m/s 11.8 mm 14.9° 1006.5 hPa 3.4 m/s 11.8 mm
11:00 18.6° 1005.3 hPa 8.1 m/s 12.0 mm 18.6° 1005.3 hPa 8.1 m/s 12.0 mm
14:00 18.1° 1004.5 hPa 9.8 m/s 14.1 mm 18.1° 1004.5 hPa 9.8 m/s 14.1 mm
17:00 18.8° 1004.1 hPa 9.4 m/s 15.5 mm 18.8° 1004.1 hPa 9.4 m/s 15.5 mm
20:00 17.8° 1006.2 hPa 6.3 m/s 15.8 mm 17.8° 1006.2 hPa 6.3 m/s 15.8 mm
23:00 14.0° 1008.0 hPa 3.5 m/s 15.8 mm 14.0° 1008.0 hPa 3.5 m/s 15.8 mm
 06:04     21:24    Daglengte: 15:20 Zondag 01 Aug
02:00 12.8° 1007.7 hPa 3.2 m/s 15.8 mm 12.8° 1007.7 hPa 3.2 m/s 15.8 mm
05:00 13.6° 1007.2 hPa 3.4 m/s 16.0 mm 13.6° 1007.2 hPa 3.4 m/s 16.0 mm
08:00 13.7° 1007.2 hPa 4.3 m/s 16.5 mm 13.7° 1007.2 hPa 4.3 m/s 16.5 mm
11:00 16.0° 1006.9 hPa 4.2 m/s 16.8 mm 16.0° 1006.9 hPa 4.2 m/s 16.8 mm
14:00 17.8° 1007.6 hPa 6.1 m/s 18.8 mm 17.8° 1007.6 hPa 6.1 m/s 18.8 mm
17:00 18.9° 1008.4 hPa 6.4 m/s 20.6 mm 18.9° 1008.4 hPa 6.4 m/s 20.7 mm
20:00 15.1° 1009.7 hPa 5.2 m/s 21.6 mm 15.1° 1009.7 hPa 5.2 m/s 21.6 mm
23:00 12.1° 1012.1 hPa 3.1 m/s 21.6 mm 12.1° 1012.1 hPa 3.1 m/s 21.6 mm
 06:05     21:23    Daglengte: 15:18 Maandag 02 Aug
02:00 10.9° 1013.4 hPa 3.0 m/s 21.6 mm 10.9° 1013.4 hPa 3.0 m/s 21.6 mm
05:00 10.2° 1013.9 hPa 2.9 m/s 21.6 mm 10.2° 1013.9 hPa 2.9 m/s 21.6 mm
08:00 12.5° 1015.0 hPa 3.2 m/s 21.6 mm 12.5° 1015.0 hPa 3.2 m/s 21.6 mm
11:00 17.2° 1015.8 hPa 4.7 m/s 21.7 mm 17.2° 1015.8 hPa 4.7 m/s 21.7 mm
14:00 18.0° 1016.1 hPa 3.8 m/s 22.1 mm 18.0° 1016.1 hPa 3.8 m/s 22.1 mm
20:00 18.1° 1015.4 hPa 0.7 m/s 22.3 mm 18.1° 1015.4 hPa 0.7 m/s 22.3 mm
 06:07     21:21    Daglengte: 15:14 Dinsdag 03 Aug
02:00 14.1° 1015.8 hPa 1.9 m/s 22.3 mm 14.1° 1015.8 hPa 1.9 m/s 22.3 mm
08:00 13.8° 1016.0 hPa 3.6 m/s 22.3 mm 13.8° 1016.0 hPa 3.6 m/s 22.3 mm
14:00 21.5° 1015.4 hPa 5.1 m/s 22.3 mm 21.5° 1015.4 hPa 5.1 m/s 22.3 mm
20:00 19.4° 1014.5 hPa 4.5 m/s 22.3 mm 19.4° 1014.5 hPa 4.5 m/s 22.3 mm
 06:08     21:19    Daglengte: 15:11 Woensdag 04 Aug
02:00 14.9° 1013.8 hPa 4.5 m/s 22.3 mm 14.9° 1013.8 hPa 4.5 m/s 22.3 mm
08:00 16.5° 1012.0 hPa 5.2 m/s 22.3 mm 16.5° 1012.0 hPa 5.2 m/s 22.3 mm
14:00 22.2° 1010.2 hPa 7.8 m/s 22.3 mm 22.2° 1010.2 hPa 7.8 m/s 22.3 mm
20:00 19.1° 1009.4 hPa 6.3 m/s 23.2 mm 19.1° 1009.4 hPa 6.3 m/s 23.2 mm
 06:10     21:18    Daglengte: 15:08 Donderdag 05 Aug
02:00 14.9° 1009.9 hPa 4.9 m/s 23.2 mm 14.9° 1009.9 hPa 4.9 m/s 23.2 mm
08:00 14.6° 1008.9 hPa 5.1 m/s 23.2 mm 14.6° 1008.9 hPa 5.1 m/s 23.2 mm
14:00 19.6° 1013.0 hPa 3.0 m/s 1.6 mm
20:00 18.3° 1012.5 hPa 1.9 m/s 2.0 mm
 06:11     21:16    Daglengte: 15:05 Vrijdag 06 Aug
02:00 14.2° 1012.8 hPa 2.5 m/s 0.8 mm
08:00 14.6° 1012.2 hPa 3.5 m/s 0.8 mm
14:00 20.3° 1012.4 hPa 4.4 m/s 0.7 mm
20:00 18.1° 1012.5 hPa 2.7 m/s 1.7 mm
 06:13     21:14    Daglengte: 15:01 Zaterdag 07 Aug
02:00 13.6° 1013.4 hPa 2.9 m/s 0.2 mm
08:00 14.3° 1013.1 hPa 3.3 m/s 0.7 mm
14:00 20.3° 1012.8 hPa 4.1 m/s 1.4 mm
20:00 18.3° 1012.6 hPa 2.4 m/s 1.6 mm
 06:14     21:12    Daglengte: 14:58 Zondag 08 Aug
02:00 14.1° 1013.3 hPa 2.3 m/s 0.8 mm
08:00 14.8° 1013.0 hPa 3.3 m/s 0.6 mm
14:00 20.0° 1013.3 hPa 4.0 m/s 1.1 mm
20:00 18.4° 1013.6 hPa 2.3 m/s 1.6 mm
 06:16     21:10    Daglengte: 14:54 Maandag 09 Aug
02:00 13.7° 1015.1 hPa 2.0 m/s 0.2 mm
08:00 14.2° 1015.7 hPa 2.9 m/s 0.3 mm
14:00 20.3° 1016.3 hPa 3.5 m/s 0.0 mm
20:00 18.9° 1016.2 hPa 1.9 m/s 0.0 mm
 06:18     21:09    Daglengte: 14:51 Dinsdag 10 Aug
02:00 14.1° 1017.3 hPa 2.0 m/s 0.2 mm
08:00 14.7° 1017.3 hPa 2.3 m/s 0.1 mm
14:00 20.9° 1017.4 hPa 3.0 m/s 0.7 mm
FMI Hirlam - 7.5 km EWN WRFDA - 12 km DWD ICON - 7 km GFS - 25 km Basiskaart